Location: *
(45.5667°S, 177.5167°W)
Time: 16:07:12
(UTC+00:00)

Cosmos 1725 Rocket - Pass Details

Date: 29 May 2022
Orbit: 961 x 991 km, 82.9° (Epoch: 29 June)

Event Time Altitude Azimuth Distance (km) Brightness Sun altitude
Rises 05:56:46 0° 189° (S) 3,702 7.0 -16.8°
Reaches altitude 10° 05:59:17 10° 189° (S) 2,752 6.3 -17.3°
Maximum altitude 06:05:38 89° 277° (W) 995 4.0 -18.3°
Drops below altitude 10° 06:11:56 10° 6° (N) 2,740 6.4 -19.4°
Sets 06:14:26 0° 5° (N) 3,685 7.1 -19.8°
